SHT22K EGLL-EGJB

Flight info

Callsign SHT22K
Flight time N/A
Altitude 20000
Route GASGU2J GASGU N866 SAM N63 LELNA LELNA1V
Aircraft A319/M-SDE3FGHIRWY/LB1

Departure

Time N/A
Airport London Heathrow Airport (EGLL)

Arrival

Time 2026-04-21 12:18
Airport Guernsey Airport (EGJB)
Time Latitude Longitude Altitude Speed Heading
2026-04-21 11:54 51.00699 -1.26656 20304 ft 415 kts 228°
2026-04-21 11:54 50.98602 -1.29838 20299 ft 420 kts 228°
2026-04-21 11:54 50.96468 -1.33020 20301 ft 423 kts 225°
2026-04-21 11:54 50.94031 -1.35691 20299 ft 430 kts 213°
2026-04-21 11:55 50.91364 -1.37848 20299 ft 431 kts 211°
2026-04-21 11:55 50.88685 -1.39982 20302 ft 431 kts 211°
2026-04-21 11:55 50.86003 -1.42109 20295 ft 431 kts 211°
2026-04-21 11:55 50.83320 -1.44235 20296 ft 431 kts 211°
2026-04-21 11:56 50.80647 -1.46358 20297 ft 430 kts 211°
2026-04-21 11:56 50.77972 -1.48485 20299 ft 430 kts 211°
2026-04-21 11:56 50.75296 -1.50614 20297 ft 430 kts 211°
2026-04-21 11:56 50.72624 -1.52742 20294 ft 430 kts 211°
2026-04-21 11:57 50.69950 -1.54865 20293 ft 430 kts 211°
2026-04-21 11:57 50.67279 -1.56981 20275 ft 430 kts 211°
2026-04-21 11:57 50.64600 -1.59093 20273 ft 430 kts 211°
2026-04-21 11:57 50.61929 -1.61194 20277 ft 430 kts 211°
2026-04-21 11:58 50.59249 -1.63304 20277 ft 430 kts 211°
2026-04-21 11:58 50.56582 -1.65410 20272 ft 430 kts 211°
2026-04-21 11:58 50.53942 -1.67490 20276 ft 430 kts 211°
2026-04-21 11:58 50.51264 -1.69592 20275 ft 430 kts 211°
2026-04-21 11:59 50.48592 -1.71685 20275 ft 430 kts 211°
2026-04-21 11:59 50.45914 -1.73775 20272 ft 430 kts 211°
2026-04-21 11:59 50.43259 -1.75842 20267 ft 418 kts 211°
2026-04-21 11:59 50.40694 -1.77832 19901 ft 408 kts 211°
2026-04-21 12:00 50.38168 -1.79798 19415 ft 403 kts 211°
2026-04-21 12:00 50.35677 -1.81740 18930 ft 397 kts 210°
2026-04-21 12:00 50.33218 -1.83655 18443 ft 392 kts 210°
2026-04-21 12:00 50.30793 -1.85542 17904 ft 387 kts 210°
2026-04-21 12:01 50.28400 -1.87405 17358 ft 381 kts 210°
2026-04-21 12:01 50.26040 -1.89237 16833 ft 376 kts 210°
2026-04-21 12:01 50.23708 -1.91044 16313 ft 372 kts 210°
2026-04-21 12:01 50.21405 -1.92825 15809 ft 367 kts 210°
2026-04-21 12:02 50.19130 -1.94584 15308 ft 363 kts 209°
2026-04-21 12:02 50.14648 -1.98048 14329 ft 356 kts 208°
2026-04-21 12:02 50.12438 -1.99749 13825 ft 353 kts 208°
2026-04-21 12:03 50.10246 -2.01439 13289 ft 350 kts 208°
2026-04-21 12:03 50.08072 -2.03111 12751 ft 347 kts 207°
2026-04-21 12:03 50.05913 -2.04767 12235 ft 344 kts 207°
2026-04-21 12:03 50.03803 -2.06383 11732 ft 341 kts 206°
2026-04-21 12:04 50.01680 -2.08010 11219 ft 339 kts 206°
2026-04-21 12:04 49.99584 -2.09643 10718 ft 336 kts 208°
2026-04-21 12:04 49.97695 -2.11754 10231 ft 334 kts 222°
2026-04-21 12:04 49.96117 -2.14389 9703 ft 332 kts 228°
2026-04-21 12:05 49.94592 -2.17073 9168 ft 330 kts 228°
2026-04-21 12:05 49.93070 -2.19736 8649 ft 329 kts 227°
2026-04-21 12:05 49.91559 -2.22373 8278 ft 323 kts 227°
2026-04-21 12:05 49.90083 -2.24946 8219 ft 317 kts 227°
2026-04-21 12:06 49.88621 -2.27492 8228 ft 316 kts 227°
2026-04-21 12:06 49.87159 -2.30040 8230 ft 316 kts 227°
2026-04-21 12:06 49.85696 -2.32586 8229 ft 316 kts 227°
2026-04-21 12:06 49.84232 -2.35124 8227 ft 316 kts 226°
2026-04-21 12:07 49.82769 -2.37659 8223 ft 315 kts 226°
2026-04-21 12:07 49.81321 -2.40169 8225 ft 315 kts 226°
2026-04-21 12:07 49.79855 -2.42714 8223 ft 309 kts 226°
2026-04-21 12:07 49.78473 -2.45115 8030 ft 300 kts 226°
2026-04-21 12:08 49.77085 -2.47536 7601 ft 301 kts 226°
2026-04-21 12:08 49.75702 -2.49972 7178 ft 302 kts 226°
2026-04-21 12:08 49.74326 -2.52423 6762 ft 302 kts 226°
2026-04-21 12:08 49.72960 -2.54882 6321 ft 302 kts 226°
2026-04-21 12:09 49.71596 -2.57354 5884 ft 302 kts 227°
2026-04-21 12:09 49.70239 -2.59824 5451 ft 302 kts 227°
2026-04-21 12:09 49.68884 -2.62300 5005 ft 301 kts 226°
2026-04-21 12:09 49.67542 -2.64767 4553 ft 298 kts 226°
2026-04-21 12:10 49.66222 -2.67203 4109 ft 294 kts 226°
2026-04-21 12:10 49.64924 -2.69610 3675 ft 290 kts 226°
2026-04-21 12:10 49.63643 -2.71990 3234 ft 287 kts 226°
2026-04-21 12:10 49.62379 -2.74361 2789 ft 285 kts 227°
2026-04-21 12:11 49.61123 -2.76709 2350 ft 283 kts 226°
2026-04-21 12:11 49.59878 -2.79027 2039 ft 275 kts 227°
2026-04-21 12:11 49.58698 -2.81223 2014 ft 256 kts 226°
2026-04-21 12:11 49.57567 -2.83205 2010 ft 237 kts 214°
2026-04-21 12:12 49.56218 -2.84515 2024 ft 225 kts 201°
2026-04-21 12:12 49.54860 -2.85631 2016 ft 219 kts 198°
2026-04-21 12:12 49.53424 -2.86248 2029 ft 212 kts 182°
2026-04-21 12:12 49.51974 -2.86597 2029 ft 209 kts 178°
2026-04-21 12:13 49.50559 -2.86646 2017 ft 205 kts 171°
2026-04-21 12:13 49.49118 -2.86635 2014 ft 205 kts 171°
2026-04-21 12:13 49.47715 -2.86612 2017 ft 204 kts 171°
2026-04-21 12:13 49.46306 -2.86580 2010 ft 199 kts 169°
2026-04-21 12:14 49.45076 -2.85957 2013 ft 179 kts 134°
2026-04-21 12:14 49.44250 -2.84582 2018 ft 173 kts 121°
2026-04-21 12:14 49.43512 -2.83129 2017 ft 172 kts 120°
2026-04-21 12:14 49.42989 -2.81534 2012 ft 166 kts 100°
2026-04-21 12:15 49.42932 -2.79793 2014 ft 164 kts 86°
2026-04-21 12:15 49.42984 -2.78042 2015 ft 164 kts 86°
2026-04-21 12:15 49.43036 -2.76296 2006 ft 164 kts 86°
2026-04-21 12:15 49.43087 -2.74543 1961 ft 163 kts 86°
2026-04-21 12:16 49.43135 -2.72869 1798 ft 154 kts 86°
2026-04-21 12:16 49.43186 -2.71224 1592 ft 151 kts 85°
2026-04-21 12:16 49.43236 -2.69711 1481 ft 131 kts 85°
2026-04-21 12:16 49.43273 -2.68418 1298 ft 117 kts 86°
2026-04-21 12:17 49.43304 -2.67156 1095 ft 117 kts 84°
2026-04-21 12:17 49.43324 -2.65892 942 ft 121 kts 85°
2026-04-21 12:17 49.43372 -2.64565 769 ft 122 kts 84°
2026-04-21 12:17 49.43406 -2.63271 584 ft 123 kts 84°
2026-04-21 12:18 49.43446 -2.61960 417 ft 125 kts 84°
2026-04-21 12:18 49.43482 -2.60683 330 ft 105 kts 87°
2026-04-21 12:18 49.43505 -2.59949 344 ft 19 kts 87°
2026-04-21 12:18 49.43471 -2.59868 346 ft 12 kts 166°
2026-04-21 12:19 49.43379 -2.59863 344 ft 8 kts 178°
2026-04-21 12:19 49.43348 -2.59797 347 ft 10 kts 92°
2026-04-21 12:19 49.43363 -2.59669 344 ft 12 kts 86°
2026-04-21 12:19 49.43320 -2.59624 345 ft 10 kts 182°
2026-04-21 12:20 49.43260 -2.59622 344 ft 3 kts 177°
2026-04-21 12:20 49.43257 -2.59622 345 ft 0 kts 177°